Location: Bay Shore Mobile Home Park
(38.5762°N, 75.0841°W)
Time: 05:00:13
(UTC+00:00)

Hubble Space Telescope - Pass Details

Date: 30 January 2026
Orbit: 478 x 480 km, 28.5° (Epoch: 8 February)

Event Time Altitude Azimuth Distance (km) Brightness Sun altitude
Rises 23:24:25 0° 249° (WSW) 2,512 6.1 -12.8°
Reaches altitude 10° 23:27:24 10° 224° (SW) 1,634 4.1 -13.4°
Maximum altitude 23:29:29 14° 190° (S) 1,387 3.1 -13.8°
Drops below altitude 10° 23:31:34 10° 156° (SSE) 1,634 3.1 -14.2°
Enters shadow 23:32:56 - 142° (SE) 1,993 3.4 -14.4°
